Location: Unspecified
(0.0000°N, 0.0000°E)
Time: 11:33:11
(UTC+00:00)

SR - All Passes

Search period start: 09 December 2016 00:00
Search period end: 19 December 2016 00:00
Orbit: 580 x 878 km, 66.7° (Epoch: 08 December)

Date Brightness Start Highest point End Pass type
(mag) Time Alt. Az. Time Alt. Az. Time Alt. Az.
09 Dec - 01:06:14 10° N 01:11:54 53° ENE 01:17:38 10° SSE night (unlit)
09 Dec - 02:51:33 10° W 02:53:50 12° WSW 02:56:07 10° SW visible
09 Dec - 13:34:11 10° SSW 13:38:23 59° WNW 13:42:31 10° N daylight
10 Dec - 00:18:08 10° NNE 00:22:35 23° ENE 00:27:05 10° ESE night (unlit)
10 Dec - 01:59:26 10° NW 02:04:28 30° WSW 02:09:32 10° S night (unlit)
10 Dec - 12:45:04 10° S 12:49:07 41° ESE 12:53:05 10° NE daylight
11 Dec - 01:09:20 10° NNW 01:15:08 70° WSW 01:21:01 10° SSE night (unlit)
11 Dec - 11:57:33 10° SE 11:59:47 14° ESE 12:02:01 10° E daylight
11 Dec - 13:38:22 10° WSW 13:41:33 21° WNW 13:44:44 10° NNW daylight
12 Dec - 00:20:13 10° N 00:25:50 50° ENE 00:31:32 10° SE night (unlit)
12 Dec - 02:05:08 10° W 02:07:46 13° WSW 02:10:25 10° SW night (unlit)
12 Dec - 12:48:04 10° SSW 12:52:17 65° WNW 12:56:28 10° NNE daylight
12 Dec - 23:32:12 10° NNE 23:36:32 21° ENE 23:40:54 10° ESE night (unlit)
13 Dec - 01:13:17 10° NW 01:18:24 31° WSW 01:23:34 10° S night (unlit)
13 Dec - 11:59:02 10° S 12:03:01 38° ESE 12:06:55 10° NE daylight
14 Dec - 00:23:16 10° NNW 00:29:05 74° WSW 00:34:59 10° SSE night (unlit)
14 Dec - 11:11:44 10° SE 11:13:42 13° ESE 11:15:39 10° E daylight
14 Dec - 12:52:08 10° WSW 12:55:27 22° WNW 12:58:46 10° NNW daylight
14 Dec - 23:34:12 10° N 23:39:47 47° ENE 23:45:26 10° SE night (unlit)
15 Dec - 01:18:46 10° W 01:21:42 14° WSW 01:24:38 10° SW night (unlit)
15 Dec - 12:01:57 10° SSW 12:06:11 70° WNW 12:10:23 10° NNE daylight
15 Dec - 22:46:16 10° NNE 22:50:28 20° ENE 22:54:41 10° ESE night (unlit)
16 Dec - 00:27:08 10° NW 00:32:21 33° WSW 00:37:35 10° S night (unlit)
16 Dec - 11:13:00 10° S 11:16:55 35° ESE 11:20:46 10° NE daylight
16 Dec - 23:37:11 10° NNW 23:43:02 78° WSW 23:48:56 10° SSE night (unlit)
17 Dec - 10:25:57 10° SE 10:27:35 12° ESE 10:29:13 10° E daylight
17 Dec - 12:05:56 10° SW 12:09:21 24° WNW 12:12:47 10° NNW daylight
17 Dec - 22:48:11 10° N 22:53:43 45° ENE 22:59:19 10° SE night (unlit)
18 Dec - 00:32:27 10° WNW 00:35:38 15° WSW 00:38:50 10° SW night (unlit)
18 Dec - 11:15:50 10° SSW 11:20:04 76° WNW 11:24:18 10° NNE daylight
18 Dec - 22:00:22 10° NNE 22:04:24 19° ENE 22:08:28 10° ESE night (unlit)
18 Dec - 23:41:00 10° NW 23:46:17 35° WSW 23:51:35 10° S night (unlit)
